| time (UTC) | temp C | wind direction | speed KPH | gust KPH | rain 1hr cm | rain 24hr cm | rain mn cm | humidity % | barometer mb |
| 20260502150202 | 28 | 196 | 3.2 | 8.0 | 0.00 | 0.00 | 0.00 | 20 | |
| 20260502130655 | 29 | 206 | 0.0 | 6.4 | 0.00 | 0.00 | 0.00 | 19 | |
| 20260502130155 | 29 | 240 | 0.0 | 4.8 | 0.00 | 0.00 | 0.00 | 19 | |
| 20260502123653 | 28 | 233 | 4.8 | 11.3 | 0.00 | 0.00 | 0.00 | 20 | |
| 20260502123153 | 28 | 195 | 0.0 | 9.7 | 0.00 | 0.00 | 0.00 | 20 | |
| 20260502122653 | 28 | 130 | 0.0 | 3.2 | 0.00 | 0.00 | 0.00 | 19 | |
| 20260502122152 | 28 | 212 | 0.0 | 8.0 | 0.00 | 0.00 | 0.00 | 19 | |
| 20260502121652 | 28 | 177 | 1.6 | 9.7 | 0.00 | 0.00 | 0.00 | 20 | |
| 20260502121152 | 28 | 151 | 4.8 | 8.0 | 0.00 | 0.00 | 0.00 | 19 | |
| 20260502120651 | 28 | 201 | 0.0 | 8.0 | 0.00 | 0.00 | 0.00 | 19 | |
| 20260502120151 | 28 | 139 | 3.2 | 9.7 | 0.00 | 0.00 | 0.00 | 19 | |
| 20260502115651 | 28 | 135 | 0.0 | 9.7 | 0.00 | 0.00 | 0.00 | 20 | |
| 20260502115151 | 28 | 196 | 3.2 | 12.9 | 0.00 | 0.00 | 0.00 | 20 | |
| 20260502114651 | 28 | 165 | 0.0 | 8.0 | 0.00 | 0.00 | 0.00 | 20 | |
| 20260502114150 | 28 | 126 | 0.0 | 3.2 | 0.00 | 0.00 | 0.00 | 21 | |
| 20260502113650 | 28 | 172 | 0.0 | 6.4 | 0.00 | 0.00 | 0.00 | 20 | |
| 20260502113149 | 27 | 213 | 0.0 | 6.4 | 0.00 | 0.00 | 0.00 | 21 | |
| 20260502112649 | 27 | 178 | 0.0 | 8.0 | 0.00 | 0.00 | 0.00 | 22 | |
| 20260502112149 | 27 | 213 | 4.8 | 6.4 | 0.00 | 0.00 | 0.00 | 22 | |
| 20260502111648 | 27 | 175 | 3.2 | 9.7 | 0.00 | 0.00 | 0.00 | 22 | |
| 20260502111148 | 27 | 106 | 1.6 | 11.3 | 0.00 | 0.00 | 0.00 | 22 | |
| 20260502110648 | 27 | 132 | 1.6 | 12.9 | 0.00 | 0.00 | 0.00 | 22 | |
| 20260502110148 | 27 | 357 | 0.0 | 6.4 | 0.00 | 0.00 | 0.00 | 22 | |
| 20260502105647 | 27 | 192 | 0.0 | 8.0 | 0.00 | 0.00 | 0.00 | 22 | |
| 20260502105147 | 26 | 212 | 0.0 | 9.7 | 0.00 | 0.00 | 0.00 | 22 | |
| 20260502104647 | 26 | 208 | 0.0 | 4.8 | 0.00 | 0.00 | 0.00 | 23 | |
| 20260502104146 | 26 | 170 | 1.6 | 6.4 | 0.00 | 0.00 | 0.00 | 23 | |
| 20260502103646 | 26 | 123 | 1.6 | 9.7 | 0.00 | 0.00 | 0.00 | 22 | |
| 20260502103146 | 26 | 108 | 0.0 | 9.7 | 0.00 | 0.00 | 0.00 | 24 | |
| 20260502102646 | 26 | 177 | 4.8 | 11.3 | 0.00 | 0.00 | 0.00 | 25 | |
| 20260502102145 | 25 | 97 | 0.0 | 6.4 | 0.00 | 0.00 | 0.00 | 25 | |
| 20260502101645 | 25 | 172 | 4.8 | 4.8 | 0.00 | 0.00 | 0.00 | 25 | |
| 20260502101145 | 25 | 54 | 0.0 | 1.6 | 0.00 | 0.00 | 0.00 | 25 | |
| 20260502100644 | 25 | 322 | 0.0 | 6.4 | 0.00 | 0.00 | 0.00 | 25 | |
| 20260502100144 | 25 | 281 | 0.0 | 3.2 | 0.00 | 0.00 | 0.00 | 25 | |
| 20260502091141 | 25 | 150 | 3.2 | 6.4 | 0.00 | 0.00 | 0.00 | 25 | |
| 20260502090641 | 25 | 154 | 0.0 | 6.4 | 0.00 | 0.00 | 0.00 | 25 | |
| 20260502090141 | 25 | 106 | 0.0 | 1.6 | 0.00 | 0.00 | 0.00 | 26 | |
| 20260502071134 | 15 | 2 | 0.0 | 0.0 | 0.00 | 0.00 | 0.00 | 59 | |
| 20260502070634 | 13 | 2 | 0.0 | 0.0 | 0.00 | 0.00 | 0.00 | 62 | |
| 20260502070133 | 12 | 2 | 0.0 | 0.0 | 0.00 | 0.00 | 0.00 | 63 | |
| 20260502065633 | 12 | 2 | 0.0 | 0.0 | 0.00 | 0.00 | 0.00 | 64 | |
| 20260502065133 | 12 | 2 | 0.0 | 0.0 | 0.00 | 0.00 | 0.00 | 65 | |
| 20260502064633 | 12 | 2 | 0.0 | 0.0 | 0.00 | 0.00 | 0.00 | 66 | |
| 20260502064132 | 12 | 2 | 0.0 | 0.0 | 0.00 | 0.00 | 0.00 | 66 | |
| 20260502063632 | 12 | 2 | 0.0 | 0.0 | 0.00 | 0.00 | 0.00 | 67 | |
| 20260502063132 | 11 | 2 | 0.0 | 3.2 | 0.00 | 0.00 | 0.00 | 68 | |
| 20260502062631 | 11 | 4 | 0.0 | 0.0 | 0.00 | 0.00 | 0.00 | 69 | |
| 20260502062131 | 11 | 4 | 0.0 | 0.0 | 0.00 | 0.00 | 0.00 | 70 | |
| 20260502061631 | 11 | 4 | 0.0 | 0.0 | 0.00 | 0.00 | 0.00 | 70 | |
| 20260502061130 | 11 | 4 | 0.0 | 0.0 | 0.00 | 0.00 | 0.00 | 71 | |
| 20260502060630 | 11 | 4 | 0.0 | 0.0 | 0.00 | 0.00 | 0.00 | 71 | |
| 20260502060130 | 11 | 4 | 0.0 | 0.0 | 0.00 | 0.00 | 0.00 | 71 | |
| 20260502055630 | 11 | 4 | 0.0 | 0.0 | 0.00 | 0.00 | 0.00 | 72 | |
| 20260502055129 | 11 | 4 | 0.0 | 0.0 | 0.00 | 0.00 | 0.00 | 73 | |
| 20260502054629 | 10 | 4 | 0.0 | 0.0 | 0.00 | 0.00 | 0.00 | 73 | |
| 20260502054129 | 10 | 4 | 0.0 | 0.0 | 0.00 | 0.00 | 0.00 | 73 | |
| 20260502053628 | 10 | 4 | 0.0 | 0.0 | 0.00 | 0.00 | 0.00 | 73 | |
| 20260502053128 | 10 | 4 | 0.0 | 0.0 | 0.00 | 0.00 | 0.00 | 72 | |
| 20260502052628 | 10 | 4 | 0.0 | 0.0 | 0.00 | 0.00 | 0.00 | 72 | |
| 20260502052128 | 10 | 4 | 0.0 | 0.0 | 0.00 | 0.00 | 0.00 | 71 | |
| 20260502051627 | 10 | 4 | 0.0 | 0.0 | 0.00 | 0.00 | 0.00 | 71 | |
| 20260502051127 | 10 | 4 | 0.0 | 0.0 | 0.00 | 0.00 | 0.00 | 70 | |
| 20260502050627 | 10 | 4 | 0.0 | 0.0 | 0.00 | 0.00 | 0.00 | 69 | |
| 20260502050126 | 10 | 4 | 0.0 | 0.0 | 0.00 | 0.00 | 0.00 | 68 | |
| 20260502045626 | 10 | 4 | 0.0 | 0.0 | 0.00 | 0.00 | 0.00 | 68 | |
| 20260502045126 | 10 | 4 | 0.0 | 0.0 | 0.00 | 0.00 | 0.00 | 68 | |
| 20260502044625 | 10 | 4 | 0.0 | 0.0 | 0.00 | 0.00 | 0.00 | 68 | |
| 20260502044125 | 10 | 4 | 0.0 | 0.0 | 0.00 | 0.00 | 0.00 | 68 | |
| 20260502043625 | 10 | 4 | 0.0 | 0.0 | 0.00 | 0.00 | 0.00 | 68 | |
| 20260502043125 | 10 | 4 | 0.0 | 0.0 | 0.00 | 0.00 | 0.00 | 68 | |
| 20260502042624 | 10 | 4 | 0.0 | 0.0 | 0.00 | 0.00 | 0.00 | 68 | |
| 20260502042124 | 10 | 4 | 0.0 | 0.0 | 0.00 | 0.00 | 0.00 | 67 | |
| 20260502041624 | 10 | 4 | 0.0 | 0.0 | 0.00 | 0.00 | 0.00 | 67 | |
| 20260502041123 | 10 | 4 | 0.0 | 0.0 | 0.00 | 0.00 | 0.00 | 67 | |
| 20260502040623 | 10 | 4 | 0.0 | 0.0 | 0.00 | 0.00 | 0.00 | 67 | |
| 20260502040123 | 10 | 4 | 0.0 | 0.0 | 0.00 | 0.00 | 0.00 | 67 | |
| 20260502035623 | 10 | 4 | 0.0 | 0.0 | 0.00 | 0.00 | 0.00 | 67 | |
| 20260502035122 | 10 | 4 | 0.0 | 0.0 | 0.00 | 0.00 | 0.00 | 67 | |
| 20260502034622 | 10 | 4 | 0.0 | 0.0 | 0.00 | 0.00 | 0.00 | 67 | |
| 20260502034122 | 10 | 4 | 0.0 | 0.0 | 0.00 | 0.00 | 0.00 | 67 | |
| 20260502033621 | 10 | 4 | 0.0 | 0.0 | 0.00 | 0.00 | 0.00 | 67 | |
| 20260502033121 | 10 | 4 | 0.0 | 0.0 | 0.00 | 0.00 | 0.00 | 67 | |
| 20260502032621 | 10 | 4 | 0.0 | 0.0 | 0.00 | 0.00 | 0.00 | 67 | |
| 20260502032121 | 10 | 4 | 0.0 | 0.0 | 0.00 | 0.00 | 0.00 | 67 | |
| 20260502031620 | 11 | 4 | 0.0 | 0.0 | 0.00 | 0.00 | 0.00 | 67 | |
| 20260502031120 | 11 | 4 | 0.0 | 0.0 | 0.00 | 0.00 | 0.00 | 68 | |
| 20260502030620 | 11 | 4 | 0.0 | 1.6 | 0.00 | 0.00 | 0.00 | 69 | |
| 20260502030119 | 11 | 43 | 0.0 | 0.0 | 0.00 | 0.00 | 0.00 | 69 | |
| 20260502025619 | 11 | 43 | 0.0 | 0.0 | 0.00 | 0.00 | 0.00 | 69 | |
| 20260502025119 | 11 | 43 | 0.0 | 0.0 | 0.00 | 0.00 | 0.00 | 68 | |
| 20260502024618 | 11 | 43 | 0.0 | 0.0 | 0.00 | 0.00 | 0.00 | 68 | |
| 20260502024118 | 11 | 43 | 0.0 | 0.0 | 0.00 | 0.00 | 0.00 | 68 | |
| 20260502023618 | 11 | 43 | 0.0 | 0.0 | 0.00 | 0.00 | 0.00 | 68 | |
| 20260502023118 | 11 | 43 | 0.0 | 0.0 | 0.00 | 0.00 | 0.00 | 68 | |
| 20260502022617 | 11 | 43 | 0.0 | 0.0 | 0.00 | 0.00 | 0.00 | 69 | |
| 20260502022117 | 11 | 43 | 0.0 | 0.0 | 0.00 | 0.00 | 0.00 | 68 | |
| 20260502021617 | 12 | 43 | 0.0 | 0.0 | 0.00 | 0.00 | 0.00 | 69 | |
| 20260502021116 | 12 | 43 | 0.0 | 0.0 | 0.00 | 0.00 | 0.00 | 68 | |
| 20260502020616 | 12 | 43 | 0.0 | 0.0 | 0.00 | 0.00 | 0.00 | 68 | |
| 20260502020116 | 12 | 43 | 0.0 | 0.0 | 0.00 | 0.00 | 0.00 | 66 | |
| 20260502015615 | 12 | 43 | 0.0 | 0.0 | 0.00 | 0.00 | 0.00 | 66 | |
| 20260502015115 | 12 | 43 | 0.0 | 0.0 | 0.00 | 0.00 | 0.00 | 67 | |
| 20260502014615 | 12 | 43 | 0.0 | 0.0 | 0.00 | 0.00 | 0.00 | 66 | |
| 20260502014115 | 12 | 43 | 0.0 | 0.0 | 0.00 | 0.00 | 0.00 | 64 | |
| 20260502013614 | 12 | 43 | 0.0 | 0.0 | 0.00 | 0.00 | 0.00 | 62 | |
| 20260502013114 | 12 | 43 | 0.0 | 0.0 | 0.00 | 0.00 | 0.00 | 62 | |
| 20260502012614 | 12 | 43 | 0.0 | 0.0 | 0.00 | 0.00 | 0.00 | 61 | |
| 20260502012113 | 12 | 43 | 0.0 | 0.0 | 0.00 | 0.00 | 0.00 | 62 | |
| 20260502011613 | 12 | 43 | 0.0 | 0.0 | 0.00 | 0.00 | 0.00 | 62 | |
| 20260502011113 | 12 | 43 | 0.0 | 0.0 | 0.00 | 0.00 | 0.00 | 63 | |
| 20260502010613 | 12 | 43 | 0.0 | 0.0 | 0.00 | 0.00 | 0.00 | 63 | |
| 20260502005612 | 12 | 43 | 0.0 | 0.0 | 0.00 | 0.00 | 0.00 | 63 | |
| 20260502005112 | 12 | 43 | 0.0 | 0.0 | 0.00 | 0.00 | 0.00 | 63 | |
| 20260502004611 | 12 | 43 | 0.0 | 0.0 | 0.00 | 0.00 | 0.00 | 62 | |
| 20260502004111 | 13 | 43 | 0.0 | 0.0 | 0.00 | 0.00 | 0.00 | 63 | |
| 20260502003611 | 12 | 43 | 0.0 | 0.0 | 0.00 | 0.00 | 0.00 | 63 | |
| 20260502003111 | 13 | 43 | 0.0 | 0.0 | 0.00 | 0.00 | 0.00 | 63 | |
| 20260502002610 | 13 | 43 | 0.0 | 0.0 | 0.00 | 0.00 | 0.00 | 62 | |
| 20260502002110 | 13 | 43 | 0.0 | 0.0 | 0.00 | 0.00 | 0.00 | 61 | |
| 20260502001610 | 13 | 43 | 0.0 | 0.0 | 0.00 | 0.00 | 0.00 | 62 | |
| 20260502001109 | 13 | 43 | 0.0 | 0.0 | 0.00 | 0.00 | 0.00 | 60 | |
| 20260502000609 | 13 | 43 | 0.0 | 0.0 | 0.00 | 0.00 | 0.00 | 60 | |
| 20260502000109 | 13 | 43 | 0.0 | 0.0 | 0.00 | 0.00 | 0.00 | 59 | |
| 20260501235608 | 13 | 43 | 0.0 | 0.0 | 0.00 | 0.00 | 0.00 | 57 | |
| 20260501235108 | 14 | 43 | 0.0 | 0.0 | 0.00 | 0.00 | 0.00 | 56 | |
| 20260501234608 | 14 | 43 | 0.0 | 0.0 | 0.00 | 0.00 | 0.00 | 55 | |
| 20260501234108 | 14 | 43 | 0.0 | 0.0 | 0.00 | 0.00 | 0.00 | 54 | |
| 20260501233607 | 14 | 43 | 0.0 | 0.0 | 0.00 | 0.00 | 0.00 | 54 | |
| 20260501233107 | 14 | 43 | 0.0 | 0.0 | 0.00 | 0.00 | 0.00 | 52 | |
| 20260501232607 | 14 | 43 | 0.0 | 0.0 | 0.00 | 0.00 | 0.00 | 52 | |
| 20260501232106 | 14 | 43 | 0.0 | 0.0 | 0.00 | 0.00 | 0.00 | 52 | |
| 20260501231606 | 15 | 43 | 0.0 | 0.0 | 0.00 | 0.00 | 0.00 | 52 | |
| 20260501231106 | 15 | 43 | 0.0 | 0.0 | 0.00 | 0.00 | 0.00 | 51 | |
| 20260501230605 | 15 | 43 | 0.0 | 0.0 | 0.00 | 0.00 | 0.00 | 50 | |
| 20260501230105 | 15 | 43 | 0.0 | 0.0 | 0.00 | 0.00 | 0.00 | 50 | |
| 20260501225605 | 15 | 43 | 0.0 | 0.0 | 0.00 | 0.00 | 0.00 | 50 | |
| 20260501225105 | 15 | 43 | 0.0 | 0.0 | 0.00 | 0.00 | 0.00 | 50 | |
| 20260501224605 | 15 | 43 | 0.0 | 0.0 | 0.00 | 0.00 | 0.00 | 50 | |
| 20260501224104 | 15 | 43 | 0.0 | 0.0 | 0.00 | 0.00 | 0.00 | 49 | |
| 20260501223604 | 15 | 43 | 0.0 | 0.0 | 0.00 | 0.00 | 0.00 | 49 | |
| 20260501223103 | 15 | 43 | 0.0 | 0.0 | 0.00 | 0.00 | 0.00 | 49 | |
| 20260501222603 | 15 | 43 | 0.0 | 0.0 | 0.00 | 0.00 | 0.00 | 47 | |
| 20260501222103 | 16 | 43 | 0.0 | 0.0 | 0.00 | 0.00 | 0.00 | 47 | |
| 20260501221603 | 16 | 43 | 0.0 | 0.0 | 0.00 | 0.00 | 0.00 | 46 | |
| 20260501221102 | 16 | 43 | 0.0 | 0.0 | 0.00 | 0.00 | 0.00 | 45 | |
| 20260501220602 | 16 | 43 | 0.0 | 0.0 | 0.00 | 0.00 | 0.00 | 45 | |
| 20260501215601 | 16 | 43 | 0.0 | 0.0 | 0.00 | 0.00 | 0.00 | 44 | |
| 20260501215101 | 16 | 43 | 0.0 | 0.0 | 0.00 | 0.00 | 0.00 | 44 | |
| 20260501214601 | 16 | 43 | 0.0 | 0.0 | 0.00 | 0.00 | 0.00 | 45 | |
| 20260501214101 | 16 | 43 | 0.0 | 0.0 | 0.00 | 0.00 | 0.00 | 45 | |
| 20260501213600 | 16 | 43 | 0.0 | 0.0 | 0.00 | 0.00 | 0.00 | 44 | |
| 20260501213100 | 16 | 43 | 0.0 | 0.0 | 0.00 | 0.00 | 0.00 | 44 | |
| 20260501212600 | 16 | 43 | 0.0 | 0.0 | 0.00 | 0.00 | 0.00 | 43 | |
| 20260501212059 | 17 | 43 | 0.0 | 0.0 | 0.00 | 0.00 | 0.00 | 43 | |
| 20260501211559 | 17 | 43 | 0.0 | 0.0 | 0.00 | 0.00 | 0.00 | 42 | |
| 20260501211059 | 17 | 43 | 0.0 | 0.0 | 0.00 | 0.00 | 0.00 | 41 | |
| 20260501210558 | 17 | 43 | 0.0 | 0.0 | 0.00 | 0.00 | 0.00 | 41 | |
| 20260501210058 | 17 | 43 | 0.0 | 0.0 | 0.00 | 0.00 | 0.00 | 41 | |
| 20260501205558 | 17 | 43 | 0.0 | 0.0 | 0.00 | 0.00 | 0.00 | 41 | |
| 20260501205058 | 17 | 43 | 0.0 | 0.0 | 0.00 | 0.00 | 0.00 | 40 | |
| 20260501204557 | 18 | 43 | 0.0 | 0.0 | 0.00 | 0.00 | 0.00 | 40 | |
| 20260501204057 | 18 | 43 | 0.0 | 0.0 | 0.00 | 0.00 | 0.00 | 40 | |
| 20260501203557 | 18 | 43 | 0.0 | 0.0 | 0.00 | 0.00 | 0.00 | 39 | |
| 20260501203056 | 18 | 43 | 0.0 | 0.0 | 0.00 | 0.00 | 0.00 | 38 | |
| 20260501202556 | 18 | 43 | 0.0 | 0.0 | 0.00 | 0.00 | 0.00 | 38 | |
| 20260501202056 | 18 | 43 | 0.0 | 0.0 | 0.00 | 0.00 | 0.00 | 37 | |
| 20260501201556 | 18 | 43 | 0.0 | 0.0 | 0.00 | 0.00 | 0.00 | 37 | |
| 20260501201055 | 18 | 43 | 0.0 | 0.0 | 0.00 | 0.00 | 0.00 | 35 | |
| 20260501200555 | 18 | 43 | 0.0 | 0.0 | 0.00 | 0.00 | 0.00 | 35 | |
| 20260501200055 | 19 | 43 | 0.0 | 0.0 | 0.00 | 0.00 | 0.00 | 34 | |
| 20260501195554 | 19 | 43 | 0.0 | 1.6 | 0.00 | 0.00 | 0.00 | 34 | |
| 20260501195054 | 19 | 146 | 0.0 | 0.0 | 0.00 | 0.00 | 0.00 | 33 | |
| 20260501194554 | 20 | 146 | 0.0 | 0.0 | 0.00 | 0.00 | 0.00 | 33 | |
| 20260501194053 | 20 | 146 | 0.0 | 0.0 | 0.00 | 0.00 | 0.00 | 32 | |
| 20260501193553 | 20 | 146 | 0.0 | 0.0 | 0.00 | 0.00 | 0.00 | 32 | |
| 20260501193053 | 20 | 146 | 0.0 | 1.6 | 0.00 | 0.00 | 0.00 | 31 | |
| 20260501192553 | 20 | 101 | 1.6 | 3.2 | 0.00 | 0.00 | 0.00 | 31 | |
| 20260501192052 | 20 | 202 | 0.0 | 1.6 | 0.00 | 0.00 | 0.00 | 31 | |
| 20260501191552 | 20 | 174 | 1.6 | 1.6 | 0.00 | 0.00 | 0.00 | 30 | |
| 20260501191052 | 20 | 174 | 0.0 | 1.6 | 0.00 | 0.00 | 0.00 | 30 | |
| 20260501190551 | 20 | 194 | 0.0 | 0.0 | 0.00 | 0.00 | 0.00 | 29 | |
| 20260501190051 | 21 | 194 | 0.0 | 0.0 | 0.00 | 0.00 | 0.00 | 29 | |
| 20260501185551 | 21 | 194 | 0.0 | 3.2 | 0.00 | 0.00 | 0.00 | 29 | |
| 20260501185051 | 21 | 260 | 0.0 | 1.6 | 0.00 | 0.00 | 0.00 | 28 | |
| 20260501184550 | 21 | 172 | 0.0 | 1.6 | 0.00 | 0.00 | 0.00 | 28 | |
| 20260501184050 | 21 | 164 | 0.0 | 3.2 | 0.00 | 0.00 | 0.00 | 28 | |
| 20260501183550 | 21 | 123 | 3.2 | 3.2 | 0.00 | 0.00 | 0.00 | 27 | |
| 20260501183049 | 21 | 195 | 0.0 | 0.0 | 0.00 | 0.00 | 0.00 | 27 | |
| 20260501182549 | 22 | 195 | 0.0 | 0.0 | 0.00 | 0.00 | 0.00 | 26 | |
| 20260501182049 | 22 | 195 | 0.0 | 4.8 | 0.00 | 0.00 | 0.00 | 26 | |
| 20260501181548 | 22 | 180 | 0.0 | 4.8 | 0.00 | 0.00 | 0.00 | 26 | |
| 20260501181048 | 22 | 151 | 0.0 | 9.7 | 0.00 | 0.00 | 0.00 | 25 | |
| 20260501180548 | 22 | 109 | 1.6 | 6.4 | 0.00 | 0.00 | 0.00 | 25 | |
| 20260501180048 | 22 | 181 | 0.0 | 9.7 | 0.00 | 0.00 | 0.00 | 25 | |
| 20260501175547 | 22 | 47 | 0.0 | 11.3 | 0.00 | 0.00 | 0.00 | 24 | |
| 20260501175047 | 23 | 105 | 0.0 | 9.7 | 0.00 | 0.00 | 0.00 | 24 | |
| 20260501174547 | 23 | 154 | 0.0 | 9.7 | 0.00 | 0.00 | 0.00 | 23 | |
| 20260501174046 | 23 | 35 | 0.0 | 6.4 | 0.00 | 0.00 | 0.00 | 23 | |
| 20260501173546 | 23 | 172 | 1.6 | 9.7 | 0.00 | 0.00 | 0.00 | 22 | |
| 20260501173046 | 23 | 185 | 4.8 | 11.3 | 0.00 | 0.00 | 0.00 | 21 | |
| 20260501172545 | 24 | 135 | 4.8 | 12.9 | 0.00 | 0.00 | 0.00 | 21 | |
| 20260501172045 | 24 | 203 | 1.6 | 12.9 | 0.00 | 0.00 | 0.00 | 20 | |
| 20260501171545 | 25 | 171 | 6.4 | 9.7 | 0.00 | 0.00 | 0.00 | 20 | |
| 20260501171045 | 25 | 160 | 8.0 | 14.5 | 0.00 | 0.00 | 0.00 | 19 | |
| 20260501170544 | 25 | 212 | 0.0 | 14.5 | 0.00 | 0.00 | 0.00 | 19 | |
| 20260501170044 | 25 | 181 | 4.8 | 6.4 | 0.00 | 0.00 | 0.00 | 19 | |
| 20260501165544 | 25 | 212 | 0.0 | 8.0 | 0.00 | 0.00 | 0.00 | 18 | |
| 20260501165043 | 25 | 129 | 0.0 | 9.7 | 0.00 | 0.00 | 0.00 | 17 | |
| 20260501164543 | 26 | 187 | 8.0 | 9.7 | 0.00 | 0.00 | 0.00 | 17 | |
| 20260501164043 | 26 | 216 | 1.6 | 8.0 | 0.00 | 0.00 | 0.00 | 17 | |
| 20260501163543 | 26 | 209 | 3.2 | 12.9 | 0.00 | 0.00 | 0.00 | 17 | |
| 20260501163042 | 26 | 163 | 9.7 | 12.9 | 0.00 | 0.00 | 0.00 | 16 | |
| 20260501162542 | 26 | 30 | 0.0 | 11.3 | 0.00 | 0.00 | 0.00 | 16 | |
| 20260501162042 | 26 | 161 | 1.6 | 14.5 | 0.00 | 0.00 | 0.00 | 16 | |
| 20260501161541 | 26 | 226 | 1.6 | 9.7 | 0.00 | 0.00 | 0.00 | 16 | |
| 20260501161041 | 26 | 215 | 1.6 | 8.0 | 0.00 | 0.00 | 0.00 | 16 | |
| 20260501160541 | 26 | 216 | 0.0 | 8.0 | 0.00 | 0.00 | 0.00 | 16 | |
| 20260501160041 | 26 | 223 | 1.6 | 8.0 | 0.00 | 0.00 | 0.00 | 16 | |
| 20260501155540 | 27 | 192 | 8.0 | 9.7 | 0.00 | 0.00 | 0.00 | 15 | |
| 20260501155040 | 26 | 127 | 0.0 | 8.0 | 0.00 | 0.00 | 0.00 | 16 | |
| 20260501154540 | 26 | 130 | 1.6 | 8.0 | 0.00 | 0.00 | 0.00 | 16 | |
| 20260501154039 | 26 | 165 | 1.6 | 12.9 | 0.00 | 0.00 | 0.00 | 15 | |
| 20260501153539 | 26 | 187 | 9.7 | 14.5 | 0.00 | 0.00 | 0.00 | 15 | |
| 20260501153039 | 26 | 125 | 3.2 | 12.9 | 0.00 | 0.00 | 0.00 | 16 | |
| 20260501152538 | 26 | 180 | 4.8 | 11.3 | 0.00 | 0.00 | 0.00 | 15 | |
| 20260501152038 | 26 | 172 | 1.6 | 14.5 | 0.00 | 0.00 | 0.00 | 16 | |
| 20260501151538 | 26 | 178 | 8.0 | 9.7 | 0.00 | 0.00 | 0.00 | 15 | |
| 20260501151037 | 26 | 181 | 3.2 | 11.3 | 0.00 | 0.00 | 0.00 | 15 | |
| 20260501150537 | 26 | 187 | 0.0 | 12.9 | 0.00 | 0.00 | 0.00 | 16 |